Temp
-8 -8 -8 -8 -8 -8 -8 -8 -8 -9 -8 -8 -8 -8 -8 -8 -8 -8 -8 -8 -8 -9 -8 -8 -8 -8 -8 -7 -8 -8 -7 -7 -7 -7 -7 -7 -6 -7 -6 -6 -7 -7 -7
-8 -8 -8 -7 -8 -8 -9 -7 -6 -8 -9 -9 -8 -8 -8 -8 -8 -8 -9 -9 -8 -9 -9 -8 -8 -8 -8 -8 -8 -8 -7 -7 -7 -7 -7 -7 -6 -7 -6 -6 -7 -7 -7
-8 -7 -7 -4 -7 -8 -7 -7 -6 -7 -9 -8 -9 -8 -8 -8 -8 -9 -9 -9 -8 -8 -9 -9 -9 -8 -8 -8 -7 -7 -8 -8 -8 -7 -7 -7 -7 -7 -7 -7 -7 -7 -7
-8 -9 -9 -8 -7 -7 -7 -7 -6 -7 -8 -8 -9 -9 -9 -8 -9 -9 -9 -9 -9 -8 -9 -9 -9 -8 -8 -8 -8 -8 -7 -7 -7 -7 -7 -7 -7 -7 -7 -7 -7 -7 -7
-9 -9 -8 -10 -9 -9 -8 -8 -8 -8 -7 -7 -9 -9 -8 -9 -9 -9 -9 -9 -9 -8 -8 -9 -9 -8 -8 -8 -8 -8 -8 -7 -8 -8 -7 -7 -7 -7 -7 -7 -7 -7 -7
-9 -9 -9 -9 -7 -8 -7 -8 -7 -6 -7 -8 -8 -8 -8 -8 -10 -10 -9 -9 -9 -9 -9 -9 -9 -9 -8 -8 -8 -7 -8 -8 -7 -7 -8 -8 -8 -8 -7 -7 -7 -7 -7
-9 -9 -8 -8 -8 -7 -8 -7 -7 -7 -7 -7 -7 -8 -8 -8 -10 -10 -10 -9 -9 -9 -9 -8 -9 -9 -9 -8 -8 -8 -8 -7 -7 -8 -8 -8 -8 -8 -8 -8 -8 -8 -8
-9 -8 -8 -7 -8 -7 -8 -7 -8 -8 -7 -7 -7 -7 -8 -8 -8 -10 -10 -9 -9 -9 -9 -8 -9 -9 -8 -8 -8 -8 -8 -7 -7 -8 -8 -8 -8 -8 -8 -8 -8 -8 -8
-9 -9 -8 -8 -7 -7 -8 -7 -7 -8 -8 -8 -8 -8 -8 -8 -8 -8 -8 -9 -9 -9 -9 -9 -9 -8 -8 -7 -8 -8 -8 -8 -8 -7 -8 -8 -8 -8 -8 -8 -8 -9 -8
-9 -9 -9 -8 -8 -8 -8 -7 -7 -8 -8 -8 -8 -8 -8 -6 -8 -8 -8 -8 -9 -9 -8 -8 -9 -9 -9 -8 -7 -8 -8 -8 -7 -8 -8 -8 -8 -8 -8 -8 -8 -9 -9
-9 -9 -9 -9 -9 -9 -9 -8 -8 -8 -8 -8 -8 -8 -8 -8 -8 -8 -8 -8 -8 -8 -8 -8 -8 -8 -9 -9 -8 -8 -8 -8 -8 -8 -8 -8 -8 -9 -9 -9 -9 -9 -9
-10 -9 -9 -9 -9 -9 -9 -9 -9 -8 -9 -8 -9 -9 -9 -9 -8 -8 -9 -8 -9 -9 -8 -8 -8 -9 -9 -9 -9 -8 -8 -8 -8 -8 -8 -9 -8 -8 -9 -9 -9 -9 -9
-10 -10 -10 -10 -10 -9 -9 -9 -9 -9 -9 -9 -9 -9 -9 -9 -9 -9 -8 -9 -7 -8 -9 -9 -9 -9 -9 -9 -9 -9 -8 -7 -8 -8 -8 -8 -8 -8 -8 -8 -9 -9 -10
-11 -10 -10 -10 -10 -10 -10 -9 -9 -9 -10 -10 -10 -10 -10 -10 -10 -10 -10 -10 -8 -8 -9 -9 -9 -9 -9 -9 -9 -9 -9 -8 -8 -8 -8 -8 -8 -8 -8 -8 -8 -10 -10
-11 -11 -10 -10 -10 -10 -10 -10 -10 -10 -10 -10 -10 -10 -11 -10 -10 -11 -10 -11 -10 -10 -10 -10 -10 -9 -9 -9 -9 -9 -9 -9 -9 -8 -8 -8 -7 -8 -8 -9 -9 -9 -9
-10 -10 -10 -10 -10 -10 -10 -10 -10 -10 -10 -10 -11 -11 -11 -11 -11 -11 -11 -11 -10 -10 -10 -9 -9 -9 -8 -8 -8 -8 -9 -8 -8 -8 -8 -8 -7 -8 -9 -9 -9 -9 -9
-10 -10 -10 -10 -10 -10 -9 -10 -10 -9 -9 -10 -10 -10 -11 -10 -10 -10 -10 -10 -9 -9 -9 -9 -9 -8 -8 -8 -8 -8 -8 -8 -8 -8 -8 -8 -8 -8 -9 -9 -10 -10 -10
-10 -10 -10 -10 -10 -10 -10 -10 -10 -10 -10 -10 -10 -10 -10 -10 -10 -10 -10 -10 -9 -9 -8 -8 -8 -8 -8 -8 -8 -8 -8 -8 -8 -8 -8 -8 -8 -8 -9 -9 -9 -9 -10
-11 -11 -11 -11 -11 -11 -11 -11 -11 -11 -11 -11 -11 -11 -11 -10 -10 -10 -9 -9 -9 -9 -9 -9 -9 -9 -9 -8 -8 -8 -8 -8 -8 -8 -8 -9 -9 -9 -9 -9 -9 -9 -10
-11 -12 -12 -11 -11 -11 -11 -11 -11 -12 -11 -11 -11 -11 -11 -11 -11 -10 -10 -10 -10 -9 -9 -9 -9 -9 -9 -9 -8 -9 -8 -8 -9 -8 -9 -9 -9 -9 -10 -10 -10 -10 -11
-12 -12 -12 -12 -11 -11 -12 -12 -12 -13 -12 -12 -12 -12 -12 -12 -12 -12 -12 -12 -12 -11 -10 -10 -10 -9 -9 -8 -8 -9 -9 -9 -9 -9 -9 -9 -9 -10 -10 -10 -11 -11 -11
-12 -12 -12 -12 -12 -12 -12 -13 -13 -13 -13 -13 -14 -14 -13 -13 -13 -13 -13 -13 -13 -13 -12 -12 -11 -11 -10 -10 -9 -9 -9 -10 -10 -10 -9 -9 -9 -10 -10 -11 -10 -11 -12
-13 -13 -13 -13 -13 -13 -14 -14 -14 -14 -15 -14 -14 -14 -14 -14 -14 -14 -14 -13 -13 -13 -13 -12 -12 -12 -11 -11 -11 -11 -11 -10 -11 -11 -11 -10 -10 -11 -11 -11 -12 -11 -12
-13 -13 -13 -14 -14 -14 -15 -16 -16 -16 -16 -15 -15 -15 -15 -15 -15 -15 -14 -14 -14 -14 -14 -13 -13 -12 -12 -12 -12 -11 -12 -12 -12 -11 -11 -11 -11 -11 -12 -12 -11 -12 -12
-14 -14 -14 -15 -15 -15 -16 -16 -16 -16 -16 -16 -16 -16 -16 -15 -15 -15 -15 -15 -14 -14 -14 -14 -14 -14 -14 -13 -13 -13 -12 -12 -12 -12 -12 -11 -11 -11 -11 -12 -12 -12 -13
-14 -14 -15 -15 -15 -16 -16 -16 -16 -16 -16 -16 -16 -16 -16 -16 -16 -15 -15 -16 -15 -15 -15 -15 -15 -15 -15 -14 -14 -14 -13 -13 -13 -13 -13 -12 -13 -12 -12 -12 -13 -13 -13
Height
5835 5834 5834 5832 5831 5832 5834 5835 5833 5836 5845 5844 5847 5847 5849 5848 5849 5849 5850 5852 5851 5849 5853 5851 5853 5854 5853 5852 5850 5848 5847 5848 5850 5852 5853 5856 5858 5859 5861 5863 5863 5862 5861
5827 5820 5820 5820 5817 5824 5820 5820 5805 5818 5831 5834 5839 5841 5843 5843 5844 5846 5846 5848 5850 5846 5849 5849 5849 5851 5852 5851 5849 5846 5844 5843 5845 5848 5849 5850 5851 5853 5855 5855 5856 5855 5855
5808 5799 5802 5775 5802 5812 5809 5805 5770 5803 5813 5827 5831 5835 5838 5838 5839 5841 5840 5843 5845 5845 5843 5845 5845 5845 5846 5845 5845 5844 5844 5841 5840 5842 5842 5844 5845 5847 5848 5849 5850 5850 5849
5788 5772 5773 5782 5795 5797 5801 5803 5792 5801 5805 5820 5825 5829 5832 5833 5832 5835 5835 5836 5839 5839 5839 5840 5840 5839 5840 5840 5839 5840 5841 5840 5838 5840 5841 5841 5840 5840 5842 5843 5844 5843 5842
5792 5789 5788 5793 5795 5795 5797 5794 5798 5801 5801 5807 5814 5818 5822 5825 5826 5828 5827 5830 5832 5832 5834 5835 5836 5834 5833 5834 5835 5836 5837 5837 5835 5834 5836 5837 5836 5834 5837 5837 5836 5836 5835
5790 5791 5791 5790 5789 5788 5792 5795 5797 5795 5797 5798 5803 5808 5811 5812 5817 5821 5818 5822 5824 5824 5827 5831 5830 5831 5830 5827 5829 5831 5832 5832 5830 5829 5829 5831 5831 5830 5829 5829 5829 5829 5829
5782 5784 5787 5785 5780 5780 5784 5785 5788 5790 5790 5792 5791 5794 5797 5800 5804 5811 5811 5814 5816 5817 5818 5823 5825 5824 5824 5823 5823 5823 5823 5824 5823 5822 5822 5823 5824 5823 5824 5822 5822 5822 5822
5775 5777 5779 5778 5776 5776 5779 5780 5781 5784 5784 5786 5783 5782 5788 5792 5793 5799 5802 5806 5808 5808 5810 5813 5817 5818 5818 5818 5816 5816 5818 5817 5814 5812 5815 5818 5820 5819 5817 5817 5816 5816 5815
5767 5769 5769 5772 5771 5772 5773 5773 5776 5776 5777 5778 5778 5780 5782 5783 5785 5789 5794 5796 5797 5799 5803 5805 5806 5807 5810 5811 5811 5810 5811 5810 5809 5810 5810 5810 5811 5811 5809 5808 5807 5807 5806
5763 5765 5765 5765 5767 5766 5767 5767 5769 5769 5772 5773 5771 5776 5777 5777 5778 5781 5785 5786 5790 5791 5793 5798 5799 5799 5799 5801 5804 5804 5803 5802 5803 5802 5802 5801 5801 5801 5800 5799 5798 5798 5797
5757 5759 5760 5759 5760 5762 5762 5762 5763 5763 5764 5764 5766 5766 5766 5769 5771 5773 5774 5776 5779 5777 5779 5784 5789 5791 5792 5792 5793 5797 5795 5793 5795 5793 5793 5792 5792 5791 5791 5790 5790 5789 5789
5751 5750 5750 5752 5752 5753 5755 5755 5756 5756 5756 5756 5757 5758 5760 5763 5764 5765 5765 5768 5770 5773 5773 5774 5778 5780 5782 5783 5783 5784 5785 5784 5784 5785 5786 5785 5784 5783 5781 5782 5781 5782 5781
5744 5743 5743 5743 5744 5745 5745 5746 5747 5747 5749 5751 5751 5752 5751 5752 5754 5755 5755 5755 5758 5758 5760 5762 5766 5771 5771 5772 5772 5772 5771 5774 5775 5775 5776 5776 5775 5774 5773 5772 5773 5773 5772
5739 5739 5738 5738 5738 5737 5738 5738 5739 5740 5740 5739 5741 5742 5743 5742 5743 5743 5744 5745 5747 5746 5749 5752 5757 5759 5759 5759 5759 5760 5760 5760 5763 5766 5766 5767 5766 5765 5765 5761 5761 5762 5761
5734 5734 5732 5731 5731 5730 5730 5729 5730 5733 5734 5733 5734 5734 5735 5734 5733 5734 5734 5735 5738 5739 5741 5745 5747 5747 5746 5748 5748 5748 5750 5751 5752 5752 5754 5754 5754 5753 5753 5751 5749 5750 5750
5727 5727 5726 5725 5725 5724 5722 5723 5726 5726 5726 5726 5725 5725 5726 5726 5725 5725 5726 5728 5730 5731 5734 5733 5735 5735 5733 5735 5737 5737 5739 5740 5741 5742 5742 5744 5744 5743 5740 5739 5739 5740 5740
5721 5720 5719 5718 5717 5717 5717 5717 5715 5714 5716 5715 5715 5715 5714 5715 5716 5716 5716 5716 5718 5720 5722 5722 5723 5724 5724 5723 5723 5725 5727 5727 5729 5731 5730 5731 5734 5732 5731 5731 5731 5730 5729
5718 5716 5716 5714 5713 5710 5709 5708 5707 5705 5704 5706 5706 5705 5704 5705 5705 5703 5703 5704 5705 5707 5708 5707 5707 5708 5711 5711 5711 5712 5713 5714 5715 5715 5717 5718 5719 5719 5720 5721 5721 5722 5724
5714 5712 5711 5710 5708 5706 5703 5701 5699 5697 5696 5694 5694 5694 5691 5690 5690 5691 5692 5690 5690 5690 5693 5694 5694 5694 5695 5695 5697 5698 5699 5700 5701 5702 5703 5704 5706 5707 5707 5708 5710 5711 5711
5708 5706 5704 5703 5702 5699 5698 5696 5693 5690 5688 5687 5686 5684 5682 5680 5679 5678 5678 5676 5677 5677 5677 5678 5680 5681 5681 5681 5682 5683 5685 5686 5688 5689 5692 5693 5693 5693 5694 5695 5697 5699 5700
5701 5700 5697 5695 5693 5690 5688 5686 5683 5681 5678 5676 5674 5672 5670 5669 5667 5665 5665 5665 5663 5663 5663 5664 5664 5666 5667 5669 5671 5672 5672 5674 5676 5678 5678 5680 5680 5680 5682 5685 5683 5685 5686
5692 5689 5687 5685 5682 5680 5677 5673 5670 5668 5666 5663 5661 5660 5657 5655 5654 5653 5651 5651 5652 5652 5651 5652 5651 5651 5651 5654 5656 5658 5660 5661 5662 5664 5666 5667 5669 5671 5671 5672 5672 5674 5675
5682 5679 5676 5674 5671 5667 5664 5661 5657 5655 5653 5651 5648 5646 5645 5644 5641 5641 5640 5639 5640 5639 5637 5639 5638 5638 5638 5640 5641 5643 5645 5648 5650 5652 5653 5654 5655 5655 5658 5660 5661 5664 5663
5673 5670 5667 5664 5659 5656 5653 5650 5647 5645 5642 5640 5638 5635 5632 5631 5629 5628 5628 5627 5629 5626 5625 5626 5626 5626 5625 5626 5627 5630 5633 5636 5636 5639 5641 5638 5639 5640 5641 5644 5646 5648 5648
5665 5662 5658 5653 5649 5647 5644 5642 5637 5635 5633 5630 5628 5625 5623 5621 5620 5618 5616 5615 5616 5616 5614 5615 5615 5615 5615 5614 5617 5618 5620 5623 5625 5618 5627 5630 5627 5627 5625 5631 5633 5635 5636
5652 5649 5646 5643 5639 5636 5633 5630 5627 5624 5622 5620 5618 5616 5614 5612 5609 5608 5607 5606 5607 5606 5606 5607 5608 5609 5608 5608 5607 5608 5606 5609 5611 5612 5613 5615 5615 5616 5618 5620 5621 5623 5624
Wind_Speed
36 38 38 37 40 42 42 41 43 40 30 26 25 21 20 14 13 11 11 13 13 8 11 8 11 14 15 15 15 15 17 21 24 21 32 29 28 29 26 28 28 26 26
41 46 44 43 46 45 46 47 47 49 39 31 28 24 25 18 15 14 11 14 16 11 13 13 12 14 16 15 13 12 11 13 20 26 28 33 25 20 22 22 23 21 20
39 44 45 30 47 41 47 40 50 51 41 36 30 27 28 23 18 16 14 14 17 17 13 13 14 16 17 15 14 12 12 10 9 12 12 14 19 21 22 23 22 21 22
37 41 41 31 36 36 41 51 51 25 29 30 29 30 30 29 22 20 20 16 19 21 19 16 16 16 18 19 17 16 15 13 11 14 16 18 21 21 21 20 20 21 21
33 36 37 36 38 34 31 23 13 16 9 24 36 34 32 29 28 26 23 22 23 25 26 21 18 19 20 20 21 20 20 18 17 16 18 18 20 22 19 20 22 21 21
32 33 29 34 41 37 30 19 7 8 19 22 29 27 29 30 33 34 28 25 26 24 22 25 19 19 19 20 21 24 23 24 24 22 22 22 22 21 20 21 23 24 25
29 26 22 21 24 23 24 16 14 11 13 20 30 31 31 31 38 38 33 29 28 25 20 23 19 18 19 21 20 22 25 27 29 29 25 22 22 24 23 24 25 24 25
25 22 20 16 12 12 6 16 20 15 17 20 9 20 21 33 38 40 37 33 31 29 26 23 23 20 21 21 22 21 21 23 24 21 22 21 21 21 24 25 27 27 26
25 22 22 20 18 19 22 21 24 25 18 11 14 17 17 21 24 34 37 39 35 34 30 27 26 21 21 22 21 21 21 21 19 19 21 25 25 25 26 28 30 28 26
27 27 25 25 21 22 22 22 25 21 18 20 19 14 24 21 24 27 34 37 37 33 33 31 29 25 24 22 22 20 22 26 24 25 28 28 28 27 28 28 28 28 27
30 30 29 28 26 28 26 24 26 24 29 20 22 26 28 27 29 32 33 33 36 36 32 29 32 28 26 24 24 24 25 26 24 25 24 27 27 28 30 31 29 24 26
29 30 28 28 29 26 29 27 24 32 34 33 33 33 35 36 40 36 35 37 35 44 43 42 37 32 29 26 26 29 27 26 24 25 27 28 29 33 32 29 29 27 27
20 20 19 19 22 27 30 27 26 26 31 32 34 36 38 37 38 34 41 38 44 43 37 42 38 36 30 28 26 29 32 29 29 28 28 30 33 32 30 30 30 33 34
16 14 14 16 19 23 24 27 26 29 27 26 28 32 38 39 39 38 36 35 38 43 41 37 36 33 30 28 28 29 32 32 32 32 31 32 31 31 30 35 31 27 27
18 16 16 17 18 19 21 21 24 26 31 28 28 32 35 38 41 34 32 25 26 27 28 29 30 34 36 35 32 33 32 32 32 31 32 32 32 32 32 32 31 30 28
12 13 15 15 14 16 18 20 21 28 30 31 31 33 31 36 33 29 28 28 29 30 29 29 32 35 34 35 35 32 31 29 31 34 34 34 35 32 31 27 29 28 27
15 16 17 19 21 21 20 21 24 26 24 26 27 30 34 34 35 37 37 36 39 40 37 38 37 37 35 31 31 31 30 32 35 36 35 36 35 34 34 31 34 29 34
9 11 13 14 16 17 18 21 22 26 28 30 31 32 33 31 34 37 39 38 39 41 42 42 42 39 37 35 34 34 33 34 35 35 35 36 36 35 34 32 28 27 40
15 16 18 20 20 21 20 19 19 19 21 23 25 29 33 35 37 37 37 40 40 38 41 40 39 39 39 39 38 38 38 37 36 36 35 35 37 38 42 36 24 23 28
18 20 21 23 24 25 27 26 26 26 28 26 24 25 26 28 32 35 39 39 41 41 42 43 42 41 41 42 42 40 40 38 36 37 36 35 38 41 33 37 30 30 27
23 24 24 27 30 31 31 32 31 29 33 34 32 32 31 31 30 32 33 36 37 39 40 41 42 44 45 44 43 41 38 37 35 36 36 32 37 44 39 40 36 37 48
25 27 29 31 33 34 34 35 36 36 36 36 36 35 34 34 33 32 31 31 31 32 34 35 37 39 42 44 44 43 41 39 36 38 34 29 33 44 44 41 39 36 37
26 28 31 32 33 35 36 35 36 36 35 35 36 36 35 34 34 33 32 32 30 30 33 33 34 36 38 40 42 42 38 38 32 38 37 33 38 41 41 41 39 46 42
28 30 31 32 32 34 33 32 33 32 33 34 33 31 31 30 30 33 34 33 32 32 33 35 34 35 38 38 39 40 39 33 40 46 43 52 50 51 45 40 49 46 40
30 30 31 28 28 30 28 27 33 36 35 33 32 31 30 29 29 27 29 33 34 33 32 32 34 30 30 32 29 32 34 40 49 39 36 48 55 47 43 45 38 36 43
32 32 33 31 30 28 28 28 28 31 31 31 30 30 29 27 26 27 27 25 27 28 29 27 22 23 24 24 32 37 38 42 45 44 39 44 48 48 42 42 43 42 38
Wind_Direction
244 253 254 252 250 252 259 259 255 254 248 252 260 255 261 260 267 263 269 275 271 277 280 271 279 287 285 284 284 270 255 251 244 247 237 239 251 260 265 266 276 272 276
238 241 244 249 253 254 254 262 219 239 239 239 250 257 259 249 252 254 257 263 269 265 273 275 277 283 285 287 287 290 277 244 236 242 247 238 244 257 263 269 272 278 276
231 237 240 210 237 251 258 285 208 220 219 234 241 254 261 246 243 245 245 255 263 268 268 283 291 291 287 285 290 292 286 280 292 285 283 278 269 268 268 269 273 276 279
266 288 295 293 256 246 243 256 238 279 244 245 247 254 262 250 239 241 245 248 260 262 268 271 272 276 285 288 285 283 278 274 268 270 268 262 265 268 272 276 274 273 274
275 286 297 300 296 293 296 297 290 233 272 244 240 246 252 243 245 239 238 244 251 259 268 274 274 274 278 279 274 274 274 272 271 269 266 268 267 271 273 271 271 271 273
272 275 284 302 298 279 282 288 272 269 254 234 240 239 249 240 241 240 238 242 247 254 266 274 268 275 281 280 271 267 268 271 276 275 267 263 262 268 270 268 269 274 274
266 274 295 294 320 303 255 235 254 259 268 269 252 242 250 244 227 236 237 242 249 252 252 264 269 272 277 277 272 269 270 273 278 273 262 255 260 266 270 278 280 280 279
262 272 264 265 263 315 264 248 248 238 245 267 265 246 247 250 250 227 235 240 245 248 247 249 264 278 269 274 276 272 278 283 287 266 250 259 273 282 291 292 285 283 280
261 257 263 257 238 231 242 253 252 234 227 237 235 237 275 278 277 257 235 233 236 242 245 248 250 257 262 267 268 278 283 276 280 269 258 264 270 276 286 290 298 286 279
266 269 268 262 252 242 253 250 241 246 243 240 237 252 240 260 271 257 255 247 245 243 246 246 250 250 259 262 259 263 271 271 266 263 262 266 273 277 277 281 283 280 277
268 270 273 280 280 264 256 248 247 240 238 239 247 259 251 255 259 247 258 263 245 248 227 237 248 251 256 259 258 259 260 269 274 274 273 272 270 274 274 279 278 284 277
280 282 283 274 270 275 263 259 257 250 246 251 256 256 259 254 248 251 251 256 252 244 246 251 244 248 255 262 265 264 262 267 273 273 276 273 272 282 277 272 273 275 282
289 288 295 286 271 259 263 266 265 260 253 260 257 258 270 266 256 256 260 255 256 249 243 252 246 245 248 256 258 265 268 268 269 273 275 272 273 278 279 277 272 280 284
278 275 280 284 283 276 269 272 266 262 273 276 274 270 265 265 257 252 252 251 252 249 245 237 243 253 255 257 256 256 261 267 272 277 277 274 274 270 270 275 271 269 280
267 265 269 276 274 277 274 272 268 265 268 269 271 268 260 254 251 238 232 237 241 240 240 249 259 270 273 268 263 262 262 263 267 273 276 274 276 273 276 266 265 266 269
279 280 285 286 280 278 277 276 267 262 267 270 264 260 260 252 256 257 257 256 258 262 259 260 272 276 274 273 271 267 267 268 270 269 269 270 271 269 266 255 266 260 267
291 291 292 291 291 286 281 277 280 282 283 282 280 276 267 260 260 263 264 261 263 263 264 266 270 277 274 271 269 266 262 263 263 266 269 270 268 265 263 259 267 260 263
303 309 310 312 311 304 298 288 279 277 276 275 275 275 275 273 271 268 271 265 260 262 263 267 271 270 267 266 265 265 265 264 265 266 268 268 265 262 262 258 258 256 257
306 304 304 302 305 308 308 306 301 293 288 286 282 276 273 273 273 270 269 273 275 273 270 268 267 267 267 268 267 267 267 268 269 270 269 265 261 263 264 257 255 265 271
310 308 305 304 303 301 299 301 300 299 296 296 292 289 288 283 274 271 271 269 267 266 268 272 271 270 270 269 269 268 268 269 268 268 265 259 258 252 261 254 264 258 264
306 305 304 303 302 302 299 297 294 288 288 288 286 284 285 283 285 284 278 275 274 272 268 265 263 263 263 262 262 264 263 261 261 262 263 255 253 245 255 258 268 267 256
304 304 305 307 307 304 301 298 294 289 286 284 283 277 272 272 274 276 279 278 277 276 274 273 270 264 259 258 257 257 256 254 255 262 254 246 245 246 251 259 263 258 267
301 307 308 308 306 304 303 299 293 289 287 285 283 282 280 272 266 266 268 271 273 272 272 269 266 266 262 260 256 253 253 251 257 246 233 258 253 252 254 251 261 245 265
301 303 303 303 303 303 300 291 287 284 283 281 279 278 281 284 280 271 265 265 267 271 272 273 271 265 262 259 256 252 246 242 241 241 255 237 247 265 259 240 249 252 261
297 297 300 300 297 293 292 287 283 281 282 282 283 281 280 281 285 287 277 268 265 270 275 274 274 282 289 269 263 262 253 240 241 232 242 252 243 243 237 260 255 257 257
298 301 303 304 297 290 290 287 285 288 285 281 280 281 281 279 278 279 281 281 276 273 271 267 272 278 295 283 259 246 253 245 251 260 244 248 257 263 264 259 254 256 254